www.pogodaiklimat.ru

Погода и климат >> Архив погоды >> Дания >> Хорсенс


ПОГОДА в Хорсенсе

  • Прогноз погоды в Хорсенсе
  • Монитор погоды в Хорсенсе

АРХИВ ПОГОДЫ в Хорсенсе

Время (UTC), дата Ветер
(напр.,м/с)
 
Видим.   Явления Облачность Т
(С)
Тd
(С)
f
(%)
Тe
(С)
Тes
(С)
Комфортность P
(гПа)
Po
(гПа)
Тmin
(С)
Tmax
(С)
R
(мм)
R24
(мм)
S
(см)
22 11.06 В 1 н/о н/о +13.6 +13.2 97 +14 +14 1013.6 1010.8
23 11.06 СВ 1 н/о н/о +14.7 +14.5 99 +15 +15 1013.8 1011.0
00 12.06 штиль 0 н/о н/о +13.7 +13.5 99 +13 +13 1014.0 1011.1
01 12.06 СВ 1 н/о н/о +14.0 +13.8 99 +15 +15 1014.7 1011.8
02 12.06 СВ 2 н/о н/о +14.4 +14.2 99 +14 +14 1013.7 1010.8
03 12.06 В 1 н/о н/о +15.2 +15.0 99 +16 +16 1013.6 1010.8
04 12.06 С 2 н/о н/о +15.3 +15.1 99 +15 +15 1012.7 1009.9 0.4
05 12.06 С 3 н/о н/о +15.4 +15.1 98 +15 +15 1010.8 1008.0 2
06 12.06 СВ 2 н/о н/о +15.1 +14.8 98 +15 +15 1011.3 1008.4 +12.6 +17.0 4
07 12.06 В 1 н/о н/о +15.3 +14.9 97 +16 +16 1012.7 1009.8 1
08 12.06 СВ 2 н/о н/о +14.7 +14.3 97 +14 +14 1012.5 1009.7 1
09 12.06 С 2 н/о н/о +15.9 +15.5 97 +16 +16 1011.7 1008.8 3
10 12.06 В 2 н/о н/о +17.3 +15.9 91 +18 +18 1011.8 1009.0
11 12.06 В 2 н/о н/о +17.7 +16.1 90 +18 +18 1011.6 1008.8
12 12.06 В 3 н/о н/о +17.9 +16.0 89 +18 +18 1011.2 1008.4
13 12.06 В 3 н/о н/о +18.0 +15.7 86 +18 +18 1010.7 1007.9
14 12.06 В 2 н/о н/о +18.4 +15.8 85 +19 +19 1010.2 1007.3
15 12.06 В 2 н/о н/о +17.6 +15.7 89 +18 +18 1009.5 1006.7
16 12.06 СВ 3 н/о н/о +16.9 +15.5 91 +17 +17 1008.7 1005.8
17 12.06 С 2 н/о н/о +16.9 +15.4 91 +17 +17 1008.4 1005.6
18 12.06 СЗ 1 н/о н/о +16.3 +15.8 97 +17 +17 1008.0 1005.2 +14.7 +19.3 5
19 12.06 СВ 1 н/о н/о +16.5 +16.2 98 +17 +17 1007.5 1004.7 5
20 12.06 В 1 н/о н/о +16.1 +15.8 98 +17 +17 1007.4 1004.6 0.9
21 12.06 В 1 н/о н/о +15.9 +15.6 98 +17 +17 1007.5 1004.7 6
22 12.06 Ю 4 н/о н/о +15.7 +15.4 98 +15 +15 1008.3 1005.5
23 12.06 Ю 3 н/о н/о +15.4 +15.0 97 +15 +15 1008.2 1005.4
00 13.06 Ю 2 н/о н/о +15.4 +15.0 97 +15 +15 1008.1 1005.3
01 13.06 ЮЗ 3 н/о н/о +14.1 +13.0 93 +13 +13 1008.0 1005.1
02 13.06 ЮЗ 4 н/о н/о +13.7 +12.3 91 +12 +12 1008.5 1005.6
03 13.06 ЮЗ 4 н/о н/о +13.1 +11.7 91 +11 +11 1009.0 1006.1
04 13.06 ЮЗ 4 н/о н/о +13.0 +11.3 89 +11 +11 1009.8 1006.9
05 13.06 ЮЗ 3 н/о н/о +13.8 +11.0 83 +13 +13 1010.9 1008.0
06 13.06 ЮЗ 3 н/о н/о +14.2 +11.5 84 +13 +13 1010.9 1008.1 +12.5 +16.6
07 13.06 Ю 4 н/о н/о +15.5 +12.2 81 +15 +15 1011.4 1008.6
08 13.06 Ю 3 н/о н/о +16.5 +12.8 79 +16 +16 1011.2 1008.4
09 13.06 Ю 3 н/о н/о +17.6 +13.2 75 +18 +18 1011.2 1008.4
10 13.06 ЮВ 4 н/о н/о +19.2 +12.5 65 +20 +20 1011.4 1008.6
11 13.06 ЮВ 5 н/о н/о +19.9 +13.0 64 +22 +22 комфорт 1011.5 1008.7
12 13.06 Ю 5 н/о н/о +19.8 +11.9 60 +21 +21 комфорт 1011.7 1008.9
13 13.06 Ю 5 н/о н/о +20.8 +11.8 56 +23 +23 комфорт 1011.8 1009.1
14 13.06 Ю 5 н/о н/о +21.2 +9.2 46 +22 +22 комфорт 1012.1 1009.3
15 13.06 ЮЗ 4
{11}
н/о н/о +18.8 +9.5 55 +19 +19 1012.8 1010.0
16 13.06 ЮВ 2 н/о н/о +19.0 +12.5 66 +21 +21 комфорт 1012.9 1010.1
17 13.06 Ю 2 н/о н/о +19.3 +11.6 61 +21 +21 комфорт 1012.9 1010.1
18 13.06 ЮВ 2
{11}
н/о н/о +18.1 +11.7 66 +19 +19 1013.2 1010.4 +14.1 +21.3
19 13.06 В 2 н/о н/о +16.8 +12.4 75 +17 +17 1013.5 1010.6
20 13.06 В 3 н/о н/о +14.8 +12.2 84 +14 +14 1014.1 1011.2
21 13.06 В 2 н/о н/о +14.4 +12.0 85 +14 +14 1014.3 1011.4
22 13.06 В 2 н/о н/о +14.8 +13.3 91 +14 +14 1013.8 1011.0
23 13.06 Ю 2 н/о н/о +14.6 +12.9 90 +14 +14 1014.6 1011.7
00 14.06 СВ 1 н/о н/о +13.3 +12.4 94 +14 +14 1014.7 1011.8 0.8
01 14.06 В 1 н/о н/о +13.4 +12.7 96 +13 +13 1014.9 1012.0
02 14.06 ЮВ 2 н/о н/о +11.5 +10.7 95 +10 +10 1014.9 1012.0
03 14.06 ЮВ 2 н/о н/о +12.4 +11.4 94 +11 +11 1015.3 1012.4
04 14.06 ЮВ 3 н/о н/о +12.8 +11.5 92 +12 +12 1015.4 1012.5
05 14.06 ЮВ 3 н/о н/о +14.6 +12.5 87 +14 +14 1015.9 1013.0
06 14.06 Ю 3 н/о н/о +16.9 +12.0 73 +17 +17 1016.0 1013.2 +11.5 +18.4
07 14.06 Ю 4 н/о н/о +18.0 +11.3 65 +18 +18 1016.6 1013.7
08 14.06 Ю 5 н/о н/о +19.4 +10.5 56 +20 +20 1017.1 1014.2
09 14.06 Ю 4 н/о н/о +19.6 +11.1 58 +21 +21 комфорт 1017.4 1014.5
10 14.06 Ю 4 н/о н/о +21.2 +11.3 53 +23 +23 комфорт 1017.3 1014.4
11 14.06 Ю 5 н/о н/о +21.5 +12.1 55 +24 +24 комфорт 1017.2 1014.4
12 14.06 Ю 4 н/о н/о +22.4 +12.5 53 +25 +25 комфорт 1017.4 1014.6
13 14.06 ЮВ 3 н/о н/о +21.2 +12.3 57 +23 +23 комфорт 1017.3 1014.5
14 14.06 В 2 н/о н/о +18.4 +14.6 79 +19 +19 1017.1 1014.3
15 14.06 СВ 1 н/о н/о +19.0 +13.6 71 +21 +21 комфорт 1017.3 1014.5
16 14.06 З 3 н/о н/о +14.9 +13.8 93 +14 +14 1018.7 1015.9 3
17 14.06 В 3 н/о н/о +16.3 +14.8 91 +16 +16 1016.9 1014.0 3
18 14.06 В 3
{9}
н/о н/о +16.9 +14.6 86 +17 +17 1017.0 1014.1 +14.6 +22.5 7
19 14.06 В 2 н/о н/о +16.2 +14.3 89 +17 +17 1017.2 1014.3
20 14.06 В 2 н/о н/о +15.2 +13.8 91 +15 +15 1017.7 1014.8
21 14.06 СВ 2 н/о н/о +14.3 +13.2 93 +14 +14 1017.6 1014.7
22 14.06 СВ 1 н/о н/о +13.5 +12.8 96 +14 +14 1017.3 1014.5
23 14.06 СВ 1 н/о н/о +11.6 +11.1 97 +11 +11 1017.1 1014.2
00 15.06 СВ 1 н/о н/о +13.9 +13.4 97 +14 +14 1016.8 1013.9
01 15.06 СВ 1 н/о н/о +12.7 +12.1 96 +13 +13 1016.2 1013.4
02 15.06 СВ 2 н/о н/о +12.3 +12.0 98 +12 +12 1015.5 1012.6
03 15.06 СВ 2 н/о н/о +12.4 +12.1 98 +12 +12 1014.9 1012.0
04 15.06 С 2 н/о н/о +12.5 +12.0 97 +12 +12 1014.4 1011.5
05 15.06 С 2 н/о н/о +15.0 +13.3 90 +15 +15 1014.3 1011.4
06 15.06 С 2 н/о н/о +16.6 +14.0 85 +17 +17 1013.5 1010.6 +11.1 +16.9
07 15.06 СВ 2 н/о н/о +16.7 +14.6 87 +17 +17 1013.1 1010.3
08 15.06 В 2 н/о н/о +15.7 +14.7 94 +16 +16 1014.4 1011.6 3
09 15.06 СВ 2 н/о н/о +15.4 +15.0 97 +15 +15 1012.8 1010.0 9
10 15.06 СВ 2 н/о н/о +15.8 +15.4 97 +16 +16 1012.1 1009.2 1
11 15.06 СВ 2 н/о н/о +16.9 +16.3 96 +17 +17 1012.1 1009.3 0.2
12 15.06 В 3 н/о н/о +18.5 +16.1 86 +20 +20 1012.5 1009.7 1
13 15.06 В 4 н/о н/о +18.3 +13.5 74 +19 +19 1011.6 1008.8
14 15.06 В 4 н/о н/о +18.3 +12.7 70 +19 +19 1010.9 1008.1
15 15.06 В 4 н/о н/о +17.6 +12.3 71 +17 +17 1011.8 1008.9
16 15.06 СВ 2 н/о н/о +17.3 +12.4 73 +18 +18 1011.9 1009.0
17 15.06 СВ 1 н/о н/о +16.1 +14.0 87 +17 +17 1012.0 1009.2 0.3
18 15.06 СВ 1 н/о н/о +15.4 +14.1 92 +16 +16 1011.6 1008.8 +15.3 +19.1 0.9
19 15.06 СВ 1 н/о н/о +15.2 +14.1 93 +16 +16 1011.1 1008.3
20 15.06 ЮВ 3 н/о н/о +15.1 +14.0 93 +14 +14 1011.5 1008.6
21 15.06 ЮВ 2 н/о н/о +14.7 +14.0 96 +14 +14 1012.0 1009.1
22 15.06 ЮВ 2 н/о н/о +14.8 +14.3 97 +15 +15 1012.4 1009.6
23 15.06 ЮЗ 3 н/о н/о +15.0 +14.7 98 +14 +14 1012.5 1009.6
00 16.06 ЮЗ 4 н/о н/о +13.7 +13.2 97 +12 +12 1013.1 1010.2
01 16.06 З 3 н/о н/о +13.7 +12.8 94 +12 +12 1013.6 1010.8
02 16.06 ЮЗ 3 н/о н/о +12.7 +11.8 94 +11 +11 1014.1 1011.3
03 16.06 З 3 н/о н/о +12.7 +11.8 94 +11 +11 1014.7 1011.8
04 16.06 З 3 н/о н/о +12.5 +11.3 92 +11 +11 1015.1 1012.2
05 16.06 З 3 н/о н/о +13.0 +11.1 88 +12 +12 1015.7 1012.8
06 16.06 ЮЗ 4 н/о н/о +14.3 +11.4 83 +13 +13 1016.4 1013.6 +12.3 +15.5
07 16.06 ЮЗ 4 н/о н/о +16.3 +11.8 75 +16 +16 1016.9 1014.0
08 16.06 З 4 н/о н/о +17.2 +11.3 68 +17 +17 1017.1 1014.3
09 16.06 З 4
{10}
н/о н/о +17.7 +11.8 68 +18 +18 1017.3 1014.5
10 16.06 З 4 н/о н/о +18.6 +12.0 65 +19 +19 1018.1 1015.3
11 16.06 ЮЗ 4 н/о н/о +18.3 +11.7 65 +18 +18 1018.5 1015.6
12 16.06 З 3
{10}
н/о н/о +19.0 +11.8 63 +20 +20 1018.7 1015.8
13 16.06 З 4 н/о н/о +19.3 +12.6 65 +21 +21 комфорт 1018.8 1016.0
14 16.06 ЮЗ 4 н/о н/о +19.6 +12.3 63 +21 +21 комфорт 1019.0 1016.2
15 16.06 ЮЗ 5 н/о н/о +19.0 +11.6 62 +20 +20 1019.3 1016.4
16 16.06 ЮЗ 3 н/о н/о +20.0 +11.9 60 +22 +22 комфорт 1019.0 1016.2
17 16.06 ЮЗ 3 н/о н/о +20.0 +10.9 56 +22 +22 комфорт 1019.0 1016.2
18 16.06 ЮЗ 3 н/о н/о +18.7 +11.5 63 +20 +20 1019.0 1016.2 +14.3 +20.7
19 16.06 ЮЗ 2 н/о н/о +17.2 +10.3 64 +18 +18 1019.2 1016.4
20 16.06 ЮЗ 2 н/о н/о +14.5 +11.2 81 +14 +14 1019.6 1016.7
21 16.06 ЮЗ 1 н/о н/о +10.4 +9.4 94 +10 +10 1019.9 1017.0
22 16.06 штиль 0 н/о н/о +9.7 +9.2 97 +9 +9 1020.2 1017.3
23 16.06 ЮЗ 1 н/о н/о +8.8 +8.4 97 +9 +9 1020.5 1017.5
00 17.06 ЮЗ 1 н/о н/о +7.2 +6.9 98 +6 +6 1020.4 1017.4
01 17.06 штиль 0 н/о н/о +7.0 +6.7 98 +6 +6 1020.3 1017.4
02 17.06 штиль 0 н/о н/о +6.7 +6.5 99 +6 +6 1020.3 1017.4
03 17.06 штиль 0 н/о н/о +6.4 +6.2 99 +5 +5 1020.6 1017.6
04 17.06 штиль 0 н/о н/о +9.3 +9.2 99 +8 +8 1020.6 1017.7
05 17.06 В 1 н/о н/о +12.8 +12.5 98 +13 +13 1020.4 1017.5
06 17.06 Ю 3 н/о н/о +15.0 +12.8 87 +14 +14 1020.5 1017.6 +6.3 +18.7
07 17.06 Ю 3 н/о н/о +17.3 +13.6 79 +17 +17 1020.5 1017.7
08 17.06 ЮЗ 5 н/о н/о +18.2 +13.6 75 +18 +18 1020.7 1017.9
09 17.06 ЮЗ 4 н/о н/о +18.7 +13.1 70 +19 +19 1020.7 1017.8
10 17.06 ЮЗ 4 н/о н/о +20.1 +13.1 64 +22 +22 комфорт 1020.6 1017.8
11 17.06 ЮЗ 5 н/о н/о +20.2 +12.9 63 +22 +22 комфорт 1020.7 1017.8
12 17.06 ЮЗ 4 н/о н/о +20.7 +13.1 62 +23 +23 комфорт 1020.7 1017.9
13 17.06 ЮЗ 5 н/о н/о +21.0 +12.5 58 +23 +23 комфорт 1020.6 1017.8
14 17.06 ЮЗ 5 н/о н/о +21.0 +12.5 58 +23 +23 комфорт 1020.6 1017.8
15 17.06 ЮЗ 4 н/о н/о +20.4 +12.3 60 +23 +23 комфорт 1020.4 1017.6
16 17.06 ЮЗ 3 н/о н/о +20.4 +12.5 60 +23 +23 комфорт 1020.3 1017.4
17 17.06 ЮЗ 4 н/о н/о +20.8 +12.2 58 +23 +23 комфорт 1020.0 1017.2
18 17.06 ЮЗ 3 н/о н/о +20.4 +13.0 62 +23 +23 комфорт 1019.9 1017.1 +15.0 +21.8
19 17.06 ЮЗ 1 н/о н/о +19.8 +14.8 73 +23 +23 комфорт 1019.5 1016.7
20 17.06 ЮВ 1 н/о н/о +15.4 +13.1 86 +16 +16 1019.6 1016.8
21 17.06 ЮВ 1 н/о н/о +13.4 +12.4 94 +13 +13 1019.5 1016.6
22 17.06 штиль 0 н/о н/о +12.2 +11.3 94 +12 +12 1019.3 1016.4
23 17.06 В 1 н/о н/о +12.1 +11.5 96 +12 +12 1019.0 1016.1
00 18.06 СВ 1 н/о н/о +11.2 +10.7 97 +12 +12 1018.7 1015.8
01 18.06 ЮВ 2 н/о н/о +13.1 +12.8 98 +13 +13 1018.2 1015.3
02 18.06 ЮВ 3 н/о н/о +14.7 +12.9 89 +14 +14 1017.6 1014.7
03 18.06 ЮВ 3 н/о н/о +15.1 +12.9 87 +14 +14 1017.2 1014.3
04 18.06 ЮВ 4 н/о н/о +16.1 +13.5 85 +15 +15 1017.0 1014.1
05 18.06 Ю 5 н/о н/о +17.6 +14.5 82 +17 +17 1016.6 1013.7
06 18.06 Ю 4 н/о н/о +18.7 +15.1 80 +19 +19 1016.4 1013.6 +10.6 +20.5
07 18.06 Ю 4 н/о н/о +19.6 +15.4 77 +22 +22 комфорт 1016.2 1013.4
08 18.06 Ю 4 н/о н/о +20.9 +15.8 73 +25 +25 комфорт 1016.0 1013.2
09 18.06 Ю 3 н/о н/о +22.2 +16.3 69 +26 +26 душно 1015.7 1012.9
10 18.06 Ю 3 н/о н/о +23.1 +17.2 69 +28 +28 душно 1015.4 1012.6
11 18.06 Ю 3 н/о н/о +23.4 +17.4 69 +29 +29 душно 1015.2 1012.4
12 18.06 ЮВ 3 н/о н/о +24.5 +17.7 66 +29 +29 душно 1014.5 1011.7
13 18.06 З 3 н/о н/о +17.7 +13.7 77 +18 +18 1015.1 1012.2 1
14 18.06 Ю 3 н/о н/о +17.8 +16.3 91 +18 +18 1014.1 1011.3 5
15 18.06 ЮВ 2
{6}
н/о н/о +20.9 +17.2 79 +26 +26 душно 1014.2 1011.4 7
17 18.06 ЮВ 2 н/о н/о +21.6 +17.1 76 +26 +26 душно 1013.5 1010.7
18 18.06 Ю 2
{6}
н/о н/о +22.1 +16.6 71 +26 +26 душно 1013.1 1010.3 +16.8 +24.9
19 18.06 З 2 н/о н/о +20.4 +16.9 80 +24 +24 комфорт 1013.3 1010.5
20 18.06 З 1 н/о н/о +16.7 +15.1 90 +18 +18 1013.6 1010.8
21 18.06 З 1 н/о н/о +14.1 +13.1 94 +15 +15 1013.8 1010.9
22 18.06 З 2 н/о н/о +13.8 +13.3 97 +13 +13 1013.5 1010.6

 

Местоположение метеостанции Хорсенс (Дания): широта 55.87 долгота 9.79 высота над уровнем моря 24 м.

В архиве по умолчанию представлена погода в Хорсенсе за последнюю неделю. Архивные данные за месяц целиком и за предыдущие месяцы, начиная с января 2011 года, Вы можете получить, выбрав интересующий диапазон дат из раскрывающегося списка и нажав кнопку "Ввод!".


*Определитесь, кто Вы:
робот инопланетянин человек

Внимание! Время в таблицах - всемирное. Для получения местного времени необходимо прибавить поправку, которая равна 1 ч.

Смотрите также архив погоды в соседних городах и на ближайших метеорологических станциях:

Погода в Орхусе (Дания) (32 км)
Погода в Биллунде (Дания) (42 км)
Погода в Исенваде (Дания) (45 км)
Погода в Исенваде (Дания) (45 км)
Погода на Мысе Sletterhage (Дания) (52 км)
Погода в Оденсе (Дания) (55 км)
Погода в Вамдрупе (Дания) (57 км)
Погода в Аскове (Дания) (62 км)
Погода в Карупе (Дания) (63 км)
Погода на Мысе Roesnaes (Дания) (69 км)

Пояснения к столбцам:

Ветер - указаны скорость ветра в м/с - средняя за 10 мин, порывы в срок и между сроками (в фигурных скобках) и направление, откуда дует ветер: С - северный, СВ - северо-восточный, В - восточный, ЮВ - юго-восточный, Ю - южный, ЮЗ - юго-западный, З - западный, СЗ - северо-западный.
Видимость - горизонтальная дальность видимости в метрах или километрах. При видимости от 1 до 10 км при отсутствии осадков обычно наблюдается дымка, при ухудшении видимости до 1 км и менее - туман. В сухую погоду видимость может ухудшаться дымом, пылью или мглою.
Явления - указаны атмосферные явления, наблюдавшиеся в срок или в последний час перед сроком; фигурными скобками обозначены явления, наблюдавшиеся между сроками (за 1-3 часа до срока); квадратными скобками обозначены град или гололедные отложения с указанием их диаметра в мм.
Облачность - указаны через наклонную черту общая и нижняя облачность в баллах и высота нижней границы облаков в метрах; квадратными скобками обозначены формы облаков: Ci - перистые, Cs - перисто-слоистые, Cc - перисто-кучевые, Ac - высококучевые, As - высокослоистые, Sc - слоисто-кучевые, Ns - слоисто-дождевые, Cu - кучевые, Cb - кучево-дождевые. Подробнее классификацию облаков см. в Атласе облаков (PDF).
T - Температура воздуха - температура, измеренная на высоте 2 м над землей.
Td - Температура точки росы - температура, при понижении до которой содержащийся в воздухе водяной пар достигнет насыщения.
f - Относительная влажность воздуха - влажноcть воздуха, измеренная на высоте 2 м над землей.
Te - Эффективная температура - температура, которую ощущает одетый по сезону человек в тени. Характеристика душности погоды. При расчете учитывается влияние влажности воздуха и скорости ветра на теплоощущения человека.
Tes - Эффективная температура на солнце - температура, которую ощущает человек, с поправкой на солнечный нагрев. Характеристика знойности погоды. Зависит от высоты солнца над горизонтом, облачности и скорости ветра. Ночью, в пасмурную погоду, а также при ветре 12 м/с и более поправка равна нулю.
P - Атмосферное давление - приведенное к уровню моря атмосферное давление.
Po - Атмосферное давление - измеренное на уровне метеостанции атмосферное давление.
Tmin - Минимальная температура - минимум температуры воздуха на высоте 2 м над землей.
Tmax - Максимальная температура - максимум температуры воздуха на высоте 2 м над землей.
R - Количество осадков - Количество выпавших осадков за период времени, мм. При наведении курсора мыши на число - период времени, за который выпало указанное количество осадков.
R24 - Количество осадков - Количество выпавших осадков за 24 часа, мм.
S - Снежный покров - Высота снежного покрова, см. При наведении курсора мыши на число - состояние снежного покрова и степень покрытия местности в баллах.